Stündliche Wetter Kyurek

Heute, 14 Mai, Freitag

Zeit Temperatur Niederschläge Wind Luftdruck Luftfeuchtigkeit
00:00 +15°C° 0 mm 2 m/S 673 mmHg 57%
01:00 +15°C° 0 mm 2 m/S 673 mmHg 55%
02:00 +15°C° 0 mm 2 m/S 673 mmHg 54%
03:00 +15°C° 0 mm 2 m/S 673 mmHg 53%
04:00 +16°C° 0 mm 2 m/S 673 mmHg 52%
05:00 +16°C° 0 mm 2 m/S 673 mmHg 52%
06:00 +17°C° 0 mm 2 m/S 674 mmHg 51%
07:00 +19°C° 0 mm 2 m/S 674 mmHg 47%
08:00 +21°C° 0 mm 2 m/S 674 mmHg 43%
09:00 +24°C° 0 mm 3 m/S 675 mmHg 39%
10:00 +25°C° 0 mm 3 m/S 675 mmHg 38%
11:00 +25°C° 0 mm 4 m/S 675 mmHg 38%
12:00 +26°C° 0 mm 4 m/S 675 mmHg 38%
13:00 +25°C° 0.2 mm 4 m/S 675 mmHg 41%
14:00 +25°C° 0.2 mm 4 m/S 675 mmHg 44%
15:00 +24°C° 0.2 mm 3 m/S 675 mmHg 47%
16:00 +23°C° 0.3 mm 2 m/S 674 mmHg 53%
17:00 +20°C° 0.3 mm 2 m/S 674 mmHg 59%
18:00 +20°C° 0.3 mm 1 m/S 674 mmHg 65%
19:00 +19°C° 0.1 mm 1 m/S 673 mmHg 64%
20:00 +18°C° 0.1 mm 1 m/S 673 mmHg 64%
21:00 +16°C° 0.1 mm 1 m/S 673 mmHg 63%
22:00 +16°C° 0 mm 2 m/S 673 mmHg 64%
23:00 +16°C° 0 mm 2 m/S 673 mmHg 64%

Morgen, 15 Mai, Samstag

Zeit Temperatur Niederschläge Wind Luftdruck Luftfeuchtigkeit
00:00 +15°C° 0 mm 2 m/S 673 mmHg 64%
01:00 +15°C° 0 mm 2 m/S 673 mmHg 64%
02:00 +15°C° 0 mm 2 m/S 673 mmHg 64%
03:00 +15°C° 0 mm 2 m/S 672 mmHg 63%
04:00 +16°C° 0 mm 2 m/S 673 mmHg 62%
05:00 +17°C° 0 mm 2 m/S 673 mmHg 61%
06:00 +17°C° 0 mm 2 m/S 673 mmHg 59%
07:00 +19°C° 0 mm 2 m/S 673 mmHg 54%
08:00 +21°C° 0 mm 2 m/S 674 mmHg 49%
09:00 +23°C° 0 mm 2 m/S 674 mmHg 44%
10:00 +24°C° 0 mm 3 m/S 674 mmHg 43%
11:00 +24°C° 0 mm 3 m/S 674 mmHg 43%
12:00 +25°C° 0 mm 3 m/S 674 mmHg 42%
13:00 +25°C° 0.4 mm 3 m/S 674 mmHg 42%
14:00 +24°C° 0.4 mm 3 m/S 674 mmHg 42%
15:00 +24°C° 0.4 mm 3 m/S 674 mmHg 42%
16:00 +23°C° 0.1 mm 2 m/S 674 mmHg 47%
17:00 +21°C° 0.1 mm 2 m/S 674 mmHg 52%
18:00 +21°C° 0.1 mm 1 m/S 673 mmHg 56%
19:00 +19°C° 0 mm 1 m/S 673 mmHg 57%
20:00 +17°C° 0 mm 2 m/S 673 mmHg 58%
21:00 +16°C° 0 mm 2 m/S 673 mmHg 59%
22:00 +16°C° 0 mm 2 m/S 673 mmHg 59%
23:00 +15°C° 0 mm 2 m/S 672 mmHg 59%

übermorgen, 16 Mai, Sonntag

Zeit Temperatur Niederschläge Wind Luftdruck Luftfeuchtigkeit
00:00 +15°C° 0 mm 2 m/S 672 mmHg 58%
01:00 +15°C° 0 mm 2 m/S 672 mmHg 59%
02:00 +15°C° 0 mm 2 m/S 672 mmHg 59%
03:00 +15°C° 0 mm 2 m/S 672 mmHg 59%
04:00 +16°C° 0 mm 2 m/S 672 mmHg 59%
05:00 +17°C° 0 mm 2 m/S 672 mmHg 59%
06:00 +17°C° 0 mm 2 m/S 672 mmHg 59%
07:00 +19°C° 0 mm 2 m/S 672 mmHg 52%
08:00 +21°C° 0 mm 3 m/S 672 mmHg 45%
09:00 +22°C° 0 mm 3 m/S 672 mmHg 38%
10:00 +24°C° 0 mm 3 m/S 672 mmHg 37%
11:00 +25°C° 0 mm 4 m/S 672 mmHg 37%
12:00 +25°C° 0 mm 4 m/S 672 mmHg 36%
13:00 +25°C° 0 mm 4 m/S 672 mmHg 36%
14:00 +25°C° 0 mm 4 m/S 672 mmHg 36%
15:00 +25°C° 0 mm 4 m/S 671 mmHg 37%
16:00 +24°C° 0 mm 3 m/S 671 mmHg 44%
17:00 +21°C° 0 mm 2 m/S 670 mmHg 51%
18:00 +21°C° 0 mm 1 m/S 670 mmHg 58%
19:00 +19°C° 0 mm 2 m/S 670 mmHg 56%
20:00 +17°C° 0 mm 2 m/S 670 mmHg 55%
21:00 +16°C° 0 mm 2 m/S 670 mmHg 53%
22:00 +16°C° 0 mm 3 m/S 669 mmHg 49%
23:00 +16°C° 0 mm 3 m/S 669 mmHg 46%

17 Mai, Montag

Zeit Temperatur Niederschläge Wind Luftdruck Luftfeuchtigkeit
00:00 +14°C° 0 mm 3 m/S 669 mmHg 43%
01:00 +14°C° 0 mm 3 m/S 669 mmHg 41%
02:00 +14°C° 0 mm 3 m/S 669 mmHg 39%
03:00 +14°C° 0 mm 3 m/S 668 mmHg 37%
04:00 +16°C° 0 mm 3 m/S 669 mmHg 40%
05:00 +17°C° 0 mm 2 m/S 669 mmHg 42%
06:00 +18°C° 0 mm 2 m/S 669 mmHg 45%
07:00 +20°C° 0 mm 2 m/S 669 mmHg 41%
08:00 +21°C° 0 mm 2 m/S 669 mmHg 38%
09:00 +24°C° 0 mm 2 m/S 670 mmHg 34%
10:00 +25°C° 0 mm 2 m/S 670 mmHg 34%
11:00 +25°C° 0 mm 2 m/S 670 mmHg 35%
12:00 +26°C° 0 mm 3 m/S 670 mmHg 36%
13:00 +26°C° 0 mm 2 m/S 669 mmHg 37%
14:00 +26°C° 0 mm 2 m/S 669 mmHg 38%
15:00 +26°C° 0 mm 2 m/S 669 mmHg 39%
16:00 +25°C° 0 mm 2 m/S 669 mmHg 45%
17:00 +23°C° 0 mm 1 m/S 669 mmHg 51%
18:00 +22°C° 0 mm 1 m/S 669 mmHg 57%
19:00 +21°C° 0 mm 1 m/S 669 mmHg 53%
20:00 +19°C° 0 mm 2 m/S 669 mmHg 50%
21:00 +18°C° 0 mm 3 m/S 669 mmHg 47%
22:00 +18°C° 0 mm 3 m/S 669 mmHg 43%
23:00 +17°C° 0 mm 3 m/S 669 mmHg 39%

18 Mai, Dienstag

Zeit Temperatur Niederschläge Wind Luftdruck Luftfeuchtigkeit
00:00 +17°C° 0 mm 3 m/S 669 mmHg 36%
01:00 +17°C° 0 mm 3 m/S 669 mmHg 35%
02:00 +17°C° 0 mm 3 m/S 669 mmHg 34%
03:00 +17°C° 0 mm 2 m/S 669 mmHg 33%
04:00 +18°C° 0 mm 2 m/S 669 mmHg 37%
05:00 +18°C° 0 mm 2 m/S 670 mmHg 42%
06:00 +20°C° 0 mm 1 m/S 670 mmHg 46%
07:00 +20°C° 0 mm 2 m/S 670 mmHg 46%
08:00 +21°C° 0 mm 2 m/S 671 mmHg 46%
09:00 +24°C° 0 mm 3 m/S 671 mmHg 45%
10:00 +22°C° 0.1 mm 3 m/S 671 mmHg 50%
11:00 +22°C° 0.1 mm 3 m/S 671 mmHg 54%
12:00 +22°C° 0.1 mm 4 m/S 671 mmHg 58%
13:00 +22°C° 0.7 mm 3 m/S 671 mmHg 62%
14:00 +21°C° 0.7 mm 3 m/S 671 mmHg 67%
15:00 +20°C° 0.7 mm 3 m/S 671 mmHg 71%
16:00 +19°C° 0.6 mm 2 m/S 671 mmHg 75%
17:00 +19°C° 0.6 mm 2 m/S 671 mmHg 79%
18:00 +18°C° 0.6 mm 2 m/S 671 mmHg 82%
19:00 +17°C° 0.7 mm 2 m/S 671 mmHg 85%
20:00 +18°C° 0.7 mm 1 m/S 672 mmHg 87%
21:00 +16°C° 0.7 mm 1 m/S 672 mmHg 89%
22:00 +16°C° 0.8 mm 1 m/S 672 mmHg 88%
23:00 +16°C° 0.8 mm 1 m/S 671 mmHg 88%

19 Mai, Mittwoch

Zeit Temperatur Niederschläge Wind Luftdruck Luftfeuchtigkeit
00:00 +15°C° 0.8 mm 1 m/S 671 mmHg 87%
01:00 +15°C° 0.5 mm 1 m/S 671 mmHg 87%
02:00 +15°C° 0.5 mm 1 m/S 671 mmHg 87%
03:00 +15°C° 0.5 mm 1 m/S 671 mmHg 86%
04:00 +15°C° 0.2 mm 1 m/S 672 mmHg 85%
05:00 +16°C° 0.2 mm 1 m/S 672 mmHg 83%
06:00 +16°C° 0.2 mm 1 m/S 673 mmHg 82%
07:00 +16°C° 1.1 mm 1 m/S 673 mmHg 82%
08:00 +16°C° 1.1 mm 1 m/S 673 mmHg 83%
09:00 +16°C° 1.1 mm 1 m/S 673 mmHg 84%
10:00 +16°C° 0.7 mm 1 m/S 673 mmHg 80%
11:00 +18°C° 0.7 mm 1 m/S 673 mmHg 77%
12:00 +19°C° 0.7 mm 1 m/S 673 mmHg 73%
13:00 +19°C° 0.2 mm 1 m/S 673 mmHg 71%
14:00 +19°C° 0.2 mm 2 m/S 673 mmHg 69%
15:00 +19°C° 0.2 mm 2 m/S 673 mmHg 67%
16:00 +18°C° 0.4 mm 2 m/S 673 mmHg 72%
17:00 +19°C° 0.4 mm 1 m/S 673 mmHg 78%
18:00 +18°C° 0.4 mm 1 m/S 673 mmHg 83%
19:00 +16°C° 0.3 mm 1 m/S 673 mmHg 83%
20:00 +16°C° 0.3 mm 1 m/S 673 mmHg 84%
21:00 +15°C° 0.3 mm 1 m/S 672 mmHg 85%
22:00 +15°C° 0 mm 1 m/S 672 mmHg 82%
23:00 +15°C° 0 mm 1 m/S 672 mmHg 80%
Mehr zeigen

Wir brauchen deine Erlaubnis

Meteoprog und unser Service Anbieter werden persönliche Daten aufbewahren, so wie Cookies, Geräte Bezeichnung oder ähnliche Technologien von deinem Gerät und Prozess, so wie Persönliche Daten Inhalte und Werbungen, genauso wie social Media und den Verkehr zu analysieren.

  • Aufbewahrung und/oder Zugang zu deiner Geräte Informationen.

    Cookies, Geräte Bezeichnung oder andere Informationen, können aufbewahrt oder Zugang zu deinem Gerät erhalten, für den Grund, der oben angegeben wird.

  • Personalisierte Werbung und Inhalte, Messungen, Einblick in das Publikum und Produkt Entwicklung.

    Werbungen und Inhalte können personalisiert werden, basierend auf ein Profil. Mehr Daten können besser personalisierte Werbungen und Inhalte hinzufügen. Werbung und Inhalte können gezeigt und gemessen werden. Einblicke über das Publikum, welche die Werbung gesehen haben und den Inhalt, können abgeleitet werden. So wie Daten können genutzt werden, um es zu verbessern oder die Benutzer Erfahrung zu verbessern das System und die Software.

Wenn du “Ich stimme zu” klickst, erlaubst du uns, die Cookies zu benutzen die Geräte Bezeichnung, den Web oder ähnliche Technologien zu benutzen. Deine Settings, können in deinem Gerät bei deinem Browser geändert werden.

Für den bestimmten Zweck, berechtigten Interessen beruhen darauf, mehr als auf den Inhalt. Du kannst mehr darüber in unseren Privaten und Cookie Politik lesen.